Submittal Forms
Current Contests
Recent Contests

Club Activity Tracker - Alabama Contest Group (from club selection on form)

Recent postings for the selected club or group are listed below. Other than the call used, all calls listed are only those associated with the club or group. Click on a call to see the details of the posting.
Status Key: new=new posting, update=update prior posting, move=change club/group, delete=delete prior posting.

Sort by   for past

TimestampCallContestClassPowerScoreStatus
2019-05-22 14:03:44N4CUCWopsTSingle OpHP196new4975
2019-05-16 05:25:21W4ERVolta RTTYSOABQRP12new4959
2019-05-16 05:23:11W4ERCQ-MSOSB/40CWQRP10new4960
2019-05-16 05:20:25W4ERArQPSOCWQRP736new4962
2019-05-16 05:16:31W4ERCWopsTSingle OpQRP1,085new4966
2019-05-16 05:07:46W4ERCWopsTSingle OpQRP400new4965
2019-05-16 04:02:26W4NBSCWopsTSingle OpLP4,402new4966
2019-05-13 01:30:07AJ6T50SprngSprntSingle OpLP25new4961
2019-05-09 04:28:06W4ERCWopsTSingle OpQRP900new4956
2019-05-09 04:12:19K4WGCWopsTSingle OpHP2,107new4956
 
2019-05-09 04:01:58W4NBSCWopsTSingle OpLP3,111new4956
2019-05-08 20:11:41N4CUCWopsTSingle OpHP169new4955
2019-05-08 20:08:46N4CUCWopsTSingle OpHP169new4954
2019-05-08 20:06:47W4ERCWopsTSingle OpQRP676new4955
2019-05-08 17:22:25W4ERCWopsTSingle OpQRP576new4954
2019-05-06 01:11:45WA1FCNNewEngQPSingle OpLP36,051new4952
2019-05-06 01:04:19KG4CUY7QPSOCWLP6,720new4949
2019-05-06 00:47:50KG4CUYNewEngQPSingle OpLP4,650new4952
2019-05-02 04:20:23W4ERCWopsTSingle OpQRP289new4944
2019-05-02 04:18:26W4ERCWopsTSingle OpQRP169new4943
 
2019-05-02 04:16:51K4WGCWopsTSingle OpHP1,974new4944
2019-05-02 04:03:09N4CUCWopsTSingle OpHP121new4944
2019-05-02 03:38:06W4NBSCWopsTSingle OpLP1,260new4944
2019-05-01 20:11:06N4CUCWopsTSingle OpHP36new4942
2019-05-01 20:06:42N4CUCWopsTSingle OpHP64new4943
2019-05-01 16:34:46W4ERCWopsTSingle OpQRP729new4942
2019-04-29 01:20:31K4PVFlQPSOABMixedHP347,700new4937
2019-04-28 22:53:59N4CUFlQPSOABCWHP728new4937
2019-04-28 21:22:53N4UCFlQPSOABCWLP13,440new4937
2019-04-25 05:09:05K4WGCWopsTSingle OpHP1,681new4930
 
2019-04-25 04:12:37W4ERCWopsTSingle OpQRP1,296new4930
2019-04-25 04:07:03N4CUCWopsTSingle OpHP80new4930
2019-04-24 14:16:39N4CUCWopsTSingle OpHP90new4928
2019-04-22 01:59:21KC4TEOOnQPSingle OpLP418new4926
2019-04-22 01:49:50KC4TEOMiQPSingle OpLP560new